Falls City, NE

8:49 AM CST on February 06, 2016 (GMT -0600)
Brenner

Weather History for KFNB - April, 2012

Change the Weather History Date:

Saturday, April 14, 2012

  Actual Average Record
Temperature  
Mean Temperature 62 °F -  
Max Temperature 75 °F 63 °F 90 °F (2003)
Min Temperature 53 °F 39 °F 18 °F (1950)
Degree Days  
Heating Degree Days 2    
Growing Degree Days 12 (Base 50)    
Moisture  
Dew Point 59 °F    
Average Humidity 88    
Maximum Humidity 100    
Minimum Humidity 69    
Precipitation  
Precipitation 0.19 in - - ()
Sea Level Pressure  
Sea Level Pressure 29.69 in    
Wind  
Wind Speed 8 mph (SE)    
Max Wind Speed 22 mph    
Max Gust Speed 33 mph    
Visibility 6 miles    
Events Fog , Rain , Thunderstorm    
Averages and records for this station are not official NWS values.
T = Trace of Precipitation, MM = Missing Value Source: NWS Daily Summary

Daily Weather History Graph

Daily Weather History Graph

Search for Another Location

Airport or City:

Trip Planner

Search our weather history database for the weather conditions in past years. The results will help you decide how hot, cold, wet, or windy it might be!

Date:

Astronomy

Apr. 14, 2012 Rise Set
Actual Time 6:45 AM CDT 8:00 PM CDT
Civil Twilight 6:17 AM CDT 8:28 PM CDT
Nautical Twilight 5:43 AM CDT 9:02 PM CDT
Astronomical Twilight 5:08 AM CDT 9:37 PM CDT
Moon 3:09 AM CDT (4/14) 1:54 PM CDT (4/14)
Length of Visible Light 14h 11m
Length of Day
13h 15m
Last Quarter, 37% of the Moon is Illuminated
Apr 14
Last Quarter
Apr 21
New
Apr 29
First Quarter
May 5
Full
May 12
Last Quarter

Hourly Weather History & Observations

Time (CDT) Temp. Dew Point Humidity Pressure Visibility Wind Dir Wind Speed Gust Speed Precip Events Conditions
12:53 AM 55.9 °F 52.0 °F 87% 29.81 in 10.0 mi SSE 4.6 mph - N/A   Clear
1:53 AM 53.1 °F 50.0 °F 89% 29.81 in 10.0 mi ENE 3.5 mph - N/A   Clear
2:53 AM 53.1 °F 53.1 °F 100% 29.80 in 3.0 mi SSE 5.8 mph - N/A   Clear
2:55 AM 53.6 °F 53.6 °F 100% 29.81 in 1.8 mi SSE 5.8 mph - N/A   Partly Cloudy
2:58 AM 53.6 °F 53.6 °F 100% 29.81 in 0.8 mi SSE 4.6 mph - N/A   Mist
3:08 AM 53.6 °F 53.6 °F 100% 29.81 in 0.2 mi SSE 4.6 mph - N/A Fog Fog
3:53 AM 55.0 °F 55.0 °F 100% 29.79 in 0.2 mi ESE 3.5 mph - N/A Fog Fog
4:40 AM 55.4 °F 55.4 °F 100% 29.79 in 0.2 mi ESE 4.6 mph - N/A Fog Fog
4:48 AM 55.4 °F 55.4 °F 100% 29.79 in 1.0 mi ESE 4.6 mph - N/A   Overcast
4:53 AM 55.9 °F 55.9 °F 100% 29.77 in 1.0 mi ESE 4.6 mph - N/A   Overcast
5:04 AM 57.2 °F 55.4 °F 94% 29.78 in 3.0 mi SE 4.6 mph - N/A   Overcast
5:20 AM 57.2 °F 57.2 °F 100% 29.78 in 3.0 mi SE 5.8 mph - N/A   Overcast
5:51 AM 57.2 °F 57.2 °F 100% 29.79 in 3.0 mi SE 5.8 mph - N/A   Overcast
5:53 AM 57.9 °F 57.0 °F 97% 29.78 in 4.0 mi SE 5.8 mph - N/A   Overcast
6:35 AM 57.2 °F 57.2 °F 100% 29.79 in 4.0 mi ESE 5.8 mph - N/A   Mostly Cloudy
6:53 AM 59.0 °F 57.9 °F 96% 29.78 in 4.0 mi SE 5.8 mph - N/A   Mostly Cloudy
7:22 AM 57.2 °F 57.2 °F 100% 29.79 in 2.5 mi ESE 6.9 mph - N/A   Overcast
7:43 AM 59.0 °F 57.2 °F 94% 29.80 in 2.5 mi SE 4.6 mph - N/A   Overcast
7:51 AM 59.0 °F 59.0 °F 100% 29.80 in 2.5 mi SE 3.5 mph - N/A   Overcast
7:53 AM 59.0 °F 59.0 °F 100% 29.79 in 2.5 mi SE 4.6 mph - N/A   Overcast
8:12 AM 60.8 °F 59.0 °F 94% 29.79 in 3.0 mi ESE 5.8 mph - N/A   Overcast
8:32 AM 60.8 °F 59.0 °F 94% 29.80 in 4.0 mi SE 4.6 mph - N/A   Overcast
8:53 AM 61.0 °F 60.1 °F 97% 29.79 in 5.0 mi SE 5.8 mph - N/A   Overcast
9:20 AM 62.6 °F 60.8 °F 94% 29.79 in 5.0 mi SE 6.9 mph - N/A   Mist
9:50 AM 62.6 °F 60.8 °F 94% 29.79 in 6.0 mi SE 9.2 mph - N/A   Overcast
9:53 AM 63.0 °F 61.0 °F 93% 29.78 in 6.0 mi ESE 6.9 mph - N/A   Overcast
10:53 AM 66.9 °F 62.1 °F 84% 29.76 in 10.0 mi South 11.5 mph - N/A   Overcast
11:46 AM 69.8 °F 62.6 °F 78% 29.74 in 10.0 mi South 13.8 mph - N/A   Mostly Cloudy
11:53 AM 71.1 °F 63.0 °F 75% 29.71 in 10.0 mi SSE 10.4 mph - N/A   Mostly Cloudy
12:53 PM 72.0 °F 62.1 °F 71% 29.67 in 10.0 mi SSE 17.3 mph 24.2 mph N/A   Overcast
1:35 PM 68.0 °F 62.6 °F 83% 29.68 in 10.0 mi South 12.7 mph 26.5 mph 0.01 in Rain Light Rain
1:53 PM 69.1 °F 62.1 °F 78% 29.65 in 10.0 mi SSE 13.8 mph - 0.01 in   Overcast
2:18 PM 71.6 °F 60.8 °F 69% 29.64 in 10.0 mi South 16.1 mph 27.6 mph N/A   Overcast
2:53 PM 71.1 °F 61.0 °F 70% 29.60 in 10.0 mi SSE 17.3 mph 26.5 mph N/A   Overcast
3:24 PM 71.6 °F 60.8 °F 69% 29.56 in 10.0 mi SSE 21.9 mph 31.1 mph N/A   Overcast
3:53 PM 71.1 °F 62.1 °F 73% 29.55 in 10.0 mi SSE 20.7 mph 29.9 mph N/A   Mostly Cloudy
4:24 PM 71.6 °F 62.6 °F 73% 29.51 in 10.0 mi SE 20.7 mph 31.1 mph N/A Thunderstorm Thunderstorm
4:46 PM 69.8 °F 62.6 °F 78% 29.53 in 8.0 mi SSE 18.4 mph 25.3 mph 0.02 in Rain Rain
4:53 PM 68.0 °F 63.0 °F 84% 29.50 in 5.0 mi SSE 17.3 mph 29.9 mph 0.03 in Rain , Thunderstorm Light Rain
5:41 PM 69.8 °F 64.4 °F 83% 29.53 in 10.0 mi South 17.3 mph 27.6 mph 0.15 in   Overcast
5:53 PM 71.1 °F 64.0 °F 78% 29.52 in 10.0 mi South 17.3 mph 29.9 mph 0.15 in   Overcast
6:53 PM 70.0 °F 64.0 °F 81% 29.50 in 10.0 mi South 21.9 mph 33.4 mph N/A   Clear
7:53 PM 70.0 °F 64.0 °F 81% 29.50 in 10.0 mi South 17.3 mph 31.1 mph N/A   Partly Cloudy
8:53 PM 71.1 °F 63.0 °F 75% 29.45 in 10.0 mi South 17.3 mph 27.6 mph N/A   Partly Cloudy
9:53 PM 71.1 °F 63.0 °F 75% 29.46 in 10.0 mi South 21.9 mph 32.2 mph N/A   Clear
10:53 PM 71.1 °F 63.0 °F 75% 29.49 in 10.0 mi South 16.1 mph 24.2 mph 0.00 in   Overcast
11:53 PM 70.0 °F 64.0 °F 81% 29.44 in 10.0 mi South 16.1 mph 26.5 mph 0.00 in Rain Light Rain